Flag for U.S.A. Weather past 2 weeks in Richmond, Virginia, U.S.A.

Now
74 °F

Partly sunny.


Feels Like: 74 °F
Forecast: 69 / 87 °F
Wind: 5 mph from East

Location: Richmond International Airport

Current Time: Aug 20, 2014 at 9:01:08 AM

Latest Report: Aug 20, 2014 at 7:54 AM


Visibility: 10 mi

Pressure: 29.98 "Hg

Humidity: 82%

Dew point: 68 °F

Location of RichmondLocation

Historic Weather in Richmond — Graph

°F

Richmond temperature yesterday

Maximum temperature yesterday: 85 °F (at 1:54 PM)
Minimum temperature yesterday: 72 °F (at 4:00 AM)
Average temperature yesterday: 77 °F

Past Weeks' High & Low Weather Summary

 TemperatureHumidityPressure
High89 °F (Aug 6, 12:54 PM)94% (Aug 12, 9:54 PM)30.16 "Hg (Aug 12, 9:54 PM)
Low63 °F (Aug 11, 4:54 AM)29% (Aug 16, 4:54 PM)29.76 "Hg (Aug 13, 3:54 AM)
Average76 °F70%29.98 "Hg
* Reported Aug 5 6:54 AM — Aug 20 6:54 AM, Richmond, Weather by CustomWeather, © 2014

Note: Actual official high and low records may vary slightly from our data, if they occured in-between our weather recording intervals... More about our weather records

Advertising

Richmond weather history for previous 24 hours

 ConditionsComfort  
Time TempWeatherWind HumidityBarometerVisibility
6:54 AM
Aug 20
71 °FPassing clouds.3 mph90%29.97 "Hg8 mi
5:54 AM70 °FPassing clouds.3 mph93%29.95 "Hg7 mi
4:54 AM71 °FPassing clouds.3 mph90%29.93 "Hg7 mi
3:54 AM71 °FFog.5 mph93%29.92 "Hg6 mi
2:54 AM72 °FFog.3 mph91%29.91 "Hg6 mi
1:54 AM73 °FFog.No wind90%29.90 "Hg6 mi
12:54 AM73 °FPassing clouds.No wind90%29.92 "Hg8 mi
11:54 PM
Aug 19
74 °FPartly cloudy.3 mph91%29.92 "Hg10 mi
10:54 PM75 °FPassing clouds.5 mph88%29.92 "Hg10 mi
9:54 PM76 °FPartly cloudy.No wind85%29.92 "Hg10 mi
8:54 PM76 °FPartly sunny.No wind85%29.88 "Hg10 mi
7:54 PM78 °FBroken clouds.5 mph79%29.87 "Hg10 mi
6:54 PM80 °FPartly sunny.7 mph71%29.86 "Hg10 mi
5:54 PM82 °FBroken clouds.7 mph70%29.85 "Hg10 mi
4:54 PM80 °FBroken clouds.7 mph79%29.84 "Hg10 mi
3:54 PM82 °FBroken clouds.8 mph70%29.84 "Hg10 mi
2:54 PM81 °FCloudy.10 mph69%29.85 "Hg10 mi
1:54 PM85 °FBroken clouds.9 mph59%29.85 "Hg10 mi
12:54 PM84 °FBroken clouds.6 mph61%29.85 "Hg10 mi
11:54 AM83 °FBroken clouds.5 mph63%29.85 "Hg10 mi
10:54 AM79 °FBroken clouds.7 mph74%29.86 "Hg10 mi
9:54 AM78 °FBroken clouds.3 mph76%29.86 "Hg10 mi
Weather by CustomWeather, © 2014

See weather overviewHow to use our weather pages